CZ-6A DEB

Satellite information

Favourite Embed

Satellite Type and Status

DEBRISIN ORBIT

Key statistics

Satellite CZ-6A DEB at a glance.

Uptime

1078

Days in orbit

Revolutions

≈ 14.5

Per day

Orbit

SSO

Sun Synchronous Orbit

Inclination

98.6

Latest

Satellite identification and parameters

Extended collection of information and parameters for CZ-6A DEB.

Object identification

Identified? True

Debris? True

Object name: CZ-6A DEB

International designator: 2022-151YZ

Object number (NORAD): 55551

Object ID (CCSDS): 55551

Country: PEOPLES REPUBLIC OF CHINA (PRC)

Current information (Y/N): Y

RCS size: SMALL

Orbital parameters

Period: 99.382 minutes

Inclination: 98.6316 deg

SMA: 7107.204 km

Apoapsis: 804.869 km

Periapsis: 653.27 km

RAAN: 333.2444 deg

Eccentricy: 0.01066521

Argument of periapsis: 333.1547 deg

Mean anomaly: 26.415 deg

Mean motion: 14.48953871 rev/day

Mean motion (dot): 0.00005648 rev/day2

B* drag term: 0.001398842 1/REarth

Two-line elements (TLE)

Creation date: Oct. 23, 2025, 6:40 p.m.

Reference frame: TEME

Reference center: EARTH

Epoch: Oct. 23, 2025, 1:06 a.m. UTC

TLE line 0: 0 CZ-6A DEB

TLE line 1: 1 55551U 22151YZ 25296.04605490 .00005648 00000-0 13988-2 0 9998

TLE line 2: 2 55551 98.6316 333.2444 0106652 333.1547 26.4150 14.48953871148590

Live tracking on map

Real-time ground track for satellite CZ-6A DEB.

In-orbit conjunctions

A list of the most updated potential collisions computed for object CZ-6A DEB.

Target Orbit TCA Probability of collision Miss distance Type
SL-8 DEB LEO 2024-09-06 18:12:00 0.0003214176 138.0 (m) DEBRIS
SL-8 R/B LEO 2024-07-10 21:18:00 0.0001165225 479.0 (m) ROCKET BODY
TAURUS R/B LEO 2024-05-31 03:33:06 0.0001280146 464.0 (m) ROCKET BODY

Associated space launch

Chinese satellite reported for atmospheric/ocean/environmental/spatial parameter research purposes, details TBD.

CZ-6A DEB was lifted into orbit during the mission ‘Long March 6A | Yunhai 3’, on board a Long March 6A space rocket.

The launch took place on Nov. 11, 2022, 10:52 p.m. from Launch Complex 9A.

For more information about the launch, click the button.

Launch to space Long March 6A | Yunhai 3
Long March 6A | Yunhai 3

Agency: N/A

Status: Launch Successful

Launch date: Nov. 11, 2022, 10:52 p.m. UTC

Rocket: Long March 6A

Launch pad: Launch Complex 9A

Location: Taiyuan Satellite Launch Center, People's Republic of China

...

Latest news about this satellite

There are no fresh news available about this satellite. Check back as we update our databases every day.


Newsletter sign-up

Weekly statistics, charts and insights to help you stay on top of the space industry.